Versailles, OH

1:06 PM EST on February 21, 2017 (GMT -0500)
Darke County

Weather History for KVES - January, 2013

Change the Weather History Date:

Monday, January 21, 2013

  Actual Average (KDAY) Record (KDAY)
Temperature  
Mean Temperature 16 °F -  
Max Temperature 23 °F 35 °F 75 °F (1906)
Min Temperature 8 °F 20 °F -20 °F (1984)
Degree Days  
Heating Degree Days 50    
Moisture  
Dew Point 7 °F    
Average Humidity 67    
Maximum Humidity 86    
Minimum Humidity 53    
Precipitation  
Precipitation 0.00 in - - ()
Sea Level Pressure  
Sea Level Pressure 30.10 in    
Wind  
Wind Speed 13 mph (WNW)    
Max Wind Speed 24 mph    
Max Gust Speed 36 mph    
Visibility 9 miles    
Events Snow    
Averages and records for this station are not official NWS values.
T = Trace of Precipitation, MM = Missing Value Source: NWS Daily Summary

Daily Weather History Graph

Daily Weather History Graph

Search for Another Location

Airport or City:

Trip Planner

Search our weather history database for the weather conditions in past years. The results will help you decide how hot, cold, wet, or windy it might be!

Date:

Astronomy

Jan. 21, 2013 Rise Set
Actual Time 7:55 AM EST 5:44 PM EST
Civil Twilight 7:26 AM EST 6:13 PM EST
Nautical Twilight 6:52 AM EST 6:46 PM EST
Astronomical Twilight 6:20 AM EST 7:18 PM EST
Moon 1:23 PM EST 3:22 AM EST
Length of Visible Light 10h 47m
Length of Day
9h 48m
Waxing Gibbous, 75% of the Moon is Illuminated
Jan 21
Waxing Gibbous
Jan 26
Full
Feb 3
Last Quarter
Feb 10
New
Feb 17
First Quarter

Hourly Weather History & Observations

Time (EST) Temp. Windchill Dew Point Humidity Pressure Visibility Wind Dir Wind Speed Gust Speed Precip Events Conditions
12:15 AM 23.0 °F 13.9 °F 14.0 °F 68% 30.14 in 10.0 mi NW 8.1 mph - N/A   Overcast
12:35 AM 23.0 °F 13.9 °F 14.0 °F 68% 30.13 in 10.0 mi NW 8.1 mph - N/A   Overcast
12:55 AM 23.0 °F 12.4 °F 14.0 °F 68% 30.13 in 10.0 mi NW 10.4 mph - N/A   Overcast
1:15 AM 23.0 °F 13.9 °F 14.0 °F 68% 30.12 in 10.0 mi WNW 8.1 mph - N/A   Overcast
1:35 AM 23.0 °F 14.7 °F 14.0 °F 68% 30.11 in 10.0 mi WNW 6.9 mph - N/A   Overcast
1:55 AM 21.2 °F 11.7 °F 14.0 °F 74% 30.11 in 10.0 mi WNW 8.1 mph - N/A   Overcast
2:15 AM 21.2 °F 13.6 °F 14.0 °F 74% 30.11 in 10.0 mi WNW 5.8 mph - N/A   Overcast
2:35 AM 21.2 °F 10.1 °F 12.2 °F 68% 30.11 in 10.0 mi WNW 10.4 mph - N/A   Overcast
2:55 AM 21.2 °F 10.9 °F 12.2 °F 68% 30.11 in 10.0 mi WNW 9.2 mph - N/A   Overcast
3:15 AM 21.2 °F 10.9 °F 12.2 °F 68% 30.10 in 10.0 mi WNW 9.2 mph - N/A   Overcast
3:35 AM 21.2 °F 10.9 °F 10.4 °F 63% 30.09 in 10.0 mi WNW 9.2 mph - N/A   Overcast
3:55 AM 21.2 °F 11.7 °F 12.2 °F 68% 30.09 in 10.0 mi WNW 8.1 mph - N/A   Overcast
4:15 AM 21.2 °F 11.7 °F 12.2 °F 68% 30.09 in 10.0 mi West 8.1 mph - N/A   Overcast
4:35 AM 21.2 °F 10.1 °F 12.2 °F 68% 30.08 in 10.0 mi West 10.4 mph - N/A   Overcast
4:55 AM 21.2 °F 8.9 °F 12.2 °F 68% 30.08 in 10.0 mi West 12.7 mph - N/A   Overcast
5:15 AM 21.2 °F 7.8 °F 14.0 °F 74% 30.07 in 10.0 mi West 15.0 mph 18.4 mph N/A Snow Light Snow
5:35 AM 21.2 °F 8.9 °F 12.2 °F 68% 30.07 in 10.0 mi West 12.7 mph - N/A   Overcast
5:55 AM 19.4 °F 7.9 °F 12.2 °F 74% 30.07 in 10.0 mi West 10.4 mph - N/A   Overcast
6:15 AM 19.4 °F 7.9 °F 14.0 °F 80% 30.06 in 10.0 mi West 10.4 mph - N/A   Overcast
6:35 AM 19.4 °F 7.2 °F 14.0 °F 80% 30.07 in 10.0 mi West 11.5 mph - N/A Snow Light Snow
6:55 AM 19.4 °F 7.9 °F 14.0 °F 80% 30.06 in 5.0 mi WNW 10.4 mph - N/A Snow Light Snow
7:15 AM 19.4 °F 8.6 °F 14.0 °F 80% 30.07 in 10.0 mi WNW 9.2 mph - N/A Snow Light Snow
7:35 AM 19.4 °F 6.6 °F 14.0 °F 80% 30.07 in 10.0 mi WNW 12.7 mph - N/A Snow Light Snow
7:55 AM 19.4 °F 7.9 °F 14.0 °F 80% 30.06 in 7.0 mi West 10.4 mph 18.4 mph N/A Snow Light Snow
8:15 AM 19.4 °F 7.9 °F 14.0 °F 80% 30.07 in 10.0 mi WNW 10.4 mph - N/A Snow Light Snow
8:35 AM 19.4 °F 6.0 °F 12.2 °F 74% 30.07 in 10.0 mi West 13.8 mph 18.4 mph N/A Snow Light Snow
8:55 AM 17.6 °F 3.2 °F 12.2 °F 79% 30.06 in 7.0 mi WNW 15.0 mph - N/A Snow Light Snow
9:15 AM 19.4 °F 6.0 °F 12.2 °F 74% 30.06 in 7.0 mi West 13.8 mph 18.4 mph N/A Snow Light Snow
9:35 AM 17.6 °F 3.2 °F 14.0 °F 86% 30.06 in 2.0 mi WNW 15.0 mph - N/A Snow Light Snow
9:55 AM 17.6 °F 3.7 °F 14.0 °F 86% 30.07 in 2.5 mi WNW 13.8 mph 20.7 mph N/A Snow Light Snow
10:15 AM 19.4 °F 4.5 °F 12.2 °F 74% 30.07 in 7.0 mi West 17.3 mph 25.3 mph N/A   Overcast
10:35 AM 17.6 °F 3.7 °F 12.2 °F 79% 30.07 in 2.5 mi WNW 13.8 mph 23.0 mph N/A Snow Light Snow
10:55 AM 17.6 °F 1.7 °F 10.4 °F 73% 30.08 in 7.0 mi WNW 18.4 mph 29.9 mph N/A   Overcast
11:15 AM 19.4 °F 3.6 °F 8.6 °F 63% 30.07 in 10.0 mi West 19.6 mph 28.8 mph N/A   Mostly Cloudy
11:35 AM 19.4 °F 3.2 °F 5.0 °F 54% 30.07 in 10.0 mi West 20.7 mph 28.8 mph N/A   Scattered Clouds
11:55 AM 19.4 °F 2.8 °F 8.6 °F 63% 30.07 in 10.0 mi WNW 21.9 mph 35.7 mph N/A   Mostly Cloudy
12:15 PM 19.4 °F 2.1 °F 6.8 °F 58% 30.07 in 10.0 mi West 24.2 mph 33.4 mph N/A   Overcast
12:35 PM 19.4 °F 2.8 °F 5.0 °F 54% 30.06 in 10.0 mi WNW 21.9 mph 34.5 mph N/A   Mostly Cloudy
12:55 PM 17.6 °F 0.5 °F 5.0 °F 58% 30.07 in 10.0 mi WNW 21.9 mph 29.9 mph N/A   Overcast
1:15 PM 17.6 °F 0.1 °F 3.2 °F 53% 30.06 in 10.0 mi WNW 23.0 mph 32.2 mph N/A   Mostly Cloudy
1:35 PM 17.6 °F -0.3 °F 3.2 °F 53% 30.05 in 10.0 mi West 24.2 mph 32.2 mph N/A   Mostly Cloudy
1:55 PM 17.6 °F 1.3 °F 3.2 °F 53% 30.05 in 10.0 mi West 19.6 mph 29.9 mph N/A   Overcast
2:15 PM 17.6 °F 2.2 °F 3.2 °F 53% 30.05 in 10.0 mi WNW 17.3 mph 25.3 mph N/A   Overcast
2:35 PM 17.6 °F 1.3 °F 8.6 °F 68% 30.06 in 4.0 mi West 19.6 mph 25.3 mph N/A Snow Light Snow
2:55 PM 17.6 °F 0.9 °F 8.6 °F 68% 30.06 in 7.0 mi West 20.7 mph 32.2 mph N/A   Overcast
3:15 PM 17.6 °F 0.1 °F 6.8 °F 63% 30.07 in 10.0 mi West 23.0 mph 28.8 mph N/A   Overcast
3:35 PM 17.6 °F 1.3 °F 5.0 °F 58% 30.08 in 10.0 mi West 19.6 mph 26.5 mph N/A   Overcast
3:55 PM 14.0 °F -3.9 °F 8.6 °F 79% 30.10 in 5.0 mi WNW 20.7 mph 35.7 mph N/A   Haze
4:15 PM 14.0 °F -3.0 °F 5.0 °F 67% 30.10 in 10.0 mi West 18.4 mph 32.2 mph N/A   Mostly Cloudy
4:35 PM 14.0 °F -3.4 °F 5.0 °F 67% 30.10 in 5.0 mi West 19.6 mph 31.1 mph N/A Snow Light Snow
4:55 PM 14.0 °F -3.9 °F 6.8 °F 73% 30.11 in 4.0 mi WNW 20.7 mph 25.3 mph N/A Snow Light Snow
5:15 PM 12.2 °F -3.7 °F 5.0 °F 73% 30.11 in 10.0 mi WNW 15.0 mph 31.1 mph N/A   Mostly Cloudy
5:35 PM 12.2 °F -2.5 °F 3.2 °F 67% 30.11 in 10.0 mi WNW 12.7 mph 20.7 mph N/A   Mostly Cloudy
5:55 PM 12.2 °F -6.3 °F 1.4 °F 62% 30.12 in 10.0 mi West 20.7 mph 28.8 mph N/A   Mostly Cloudy
6:15 PM 12.2 °F -4.3 °F -0.4 °F 57% 30.13 in 10.0 mi WNW 16.1 mph 28.8 mph N/A   Clear
6:35 PM 10.4 °F -7.7 °F 1.4 °F 67% 30.13 in 10.0 mi West 18.4 mph 25.3 mph N/A   Clear
6:55 PM 12.2 °F -6.3 °F 1.4 °F 62% 30.14 in 10.0 mi West 20.7 mph 26.5 mph N/A   Scattered Clouds
7:15 PM 10.4 °F -8.2 °F -0.4 °F 62% 30.14 in 10.0 mi West 19.6 mph 25.3 mph N/A   Scattered Clouds
7:55 PM 10.4 °F -7.2 °F -0.4 °F 62% 30.14 in 10.0 mi WNW 17.3 mph 23.0 mph N/A   Clear
8:15 PM 10.4 °F -7.7 °F -2.2 °F 57% 30.14 in 10.0 mi WNW 18.4 mph 24.2 mph N/A   Clear
8:35 PM 10.4 °F -8.2 °F -0.4 °F 62% 30.15 in 10.0 mi WNW 19.6 mph 25.3 mph N/A   Clear
8:55 PM 10.4 °F -6.0 °F -2.2 °F 57% 30.16 in 10.0 mi West 15.0 mph 23.0 mph N/A   Clear
9:35 PM 10.4 °F -6.6 °F -2.2 °F 57% 30.17 in 10.0 mi WNW 16.1 mph - N/A   Clear
9:55 PM 8.6 °F -7.0 °F -2.2 °F 62% 30.17 in 10.0 mi WNW 12.7 mph 16.1 mph N/A   Clear
10:15 PM 8.6 °F -7.7 °F -2.2 °F 62% 30.18 in 10.0 mi West 13.8 mph - N/A   Clear
10:35 PM 8.6 °F -8.3 °F -4.0 °F 57% 30.18 in 10.0 mi West 15.0 mph 20.7 mph N/A   Clear
10:55 PM 8.6 °F -7.7 °F -2.2 °F 62% 30.18 in 10.0 mi West 13.8 mph 21.9 mph N/A   Clear
11:15 PM 8.6 °F -7.7 °F -2.2 °F 62% 30.18 in 10.0 mi WNW 13.8 mph 20.7 mph N/A   Clear
11:35 PM 8.6 °F -9.5 °F -4.0 °F 57% 30.18 in 10.0 mi WNW 17.3 mph 24.2 mph N/A   Clear
11:55 PM 8.6 °F -11.0 °F -4.0 °F 57% 30.19 in 10.0 mi WNW 20.7 mph 26.5 mph N/A   Scattered Clouds